Preview of NWS' New Version of Forecast
This preview is not operational and should not be used for support decisions.

Regional Weather Roundup (RWR)

Issued by Kansas City/Pleasant Hill, MO (EAX)

                            
000
ASUS43 KEAX 200910
RWREAX

WEATHER ROUNDUP FOR EASTERN KANSAS AND NORTHWEST MISSOURI
NATIONAL WEATHER SERVICE KANSAS CITY/PLEASANT HILL MO
300 AM CST WED FEB 20 2019

KSZ040-057-103>105-MOZ028-029-037-043-201000-
...KANSAS CITY METROPOLITAN AREA...
  
CITY           SKY/WX    TMP DP  RH WIND       PRES   REMARKS
K.C. INTL      FRZ DRZL  29  27  92 SE12      29.81F FOG     WCI  19  
K.C. DOWNTOWN  CLOUDY    31  27  85 E6        29.82F WCI  25          
LEES SUMMIT    CLOUDY    29  29 100 E9        29.81F FOG     WCI  20  
OLATHE - IXD   CLOUDY    29  28  96 SE7       29.82F WCI  22          
OLATHE - OJC   CLOUDY    28  28 100 SE8       29.81F FOG     WCI  20  
LAWRENCE       CLOUDY    29  27  92 SE6       29.83F FOG     WCI  23  

$$
 
MOZ001>008-011>017-020>025-030>033-038>040-044>046-053-054-201000-
...NORTHERN AND CENTRAL MISSOURI...
  
CITY           SKY/WX    TMP DP  RH WIND       PRES   REMARKS
ST. JOSEPH     CLOUDY    28  27  96 E6        29.84F FOG     WCI  22  
MOSBY          CLOUDY    30  30 100 E6        29.83F FOG     WCI  24  
WARRENSBURG    CLOUDY    30  30 100 E5        29.83F FOG     WCI  25  
WHITEMAN AFB   FRZ DRZL  31  31 100 E5        29.79F FOG     WCI  26  
CLINTON        CLOUDY    32  32 100 CALM      29.84F FOG              
SEDALIA        CLOUDY    31  31 100 E7        29.86F FOG     WCI  24  
WARSAW         NOT AVBL                                               
CHILLICOTHE      N/A     29  28  96 E6        29.88F WCI  23          
KIRKSVILLE     LGT SNOW  29  29 100 E13       29.88F FOG     WCI  19  

$$

MOZ041-047>049-056>058-063>065-088>090-097-201000-
...EASTERN AND SOUTHERN MISSOURI...
  
CITY           SKY/WX    TMP DP  RH WIND       PRES   REMARKS
ST. LOUIS INTL LGT RAIN  33  31  92 E13       29.87F WCI  24          
SPIRIT OF STL  CLOUDY    34  32  92 E6        29.90F WCI  29          
COLUMBIA       LGT SNOW  33  30  88 SE9       29.87S FOG     WCI  25  
JEFFERSON CITY LGT SNOW  33  30  88 E6        29.88F FOG     WCI  28  
ROLLA          CLOUDY    32  30  92 E7        29.85F FOG     WCI  26  
OSAGE BEACH    MIX PCPN  32  31  96 NE3       29.86F FOG              
SPRINGFIELD    CLOUDY    34  31  88 SE6       29.79F FOG     WCI  29  
BRANSON        FOG       32  32 100 CALM      29.82F VSB 3/4          
JOPLIN         CLOUDY    34  33  96 S6        29.83S WCI  29          
WEST PLAINS    CLOUDY    35  34  96 CALM      29.83F                  

$$

IAZ060-094-KSZ022-034>040-054-083-096-NEZ052-066-093-201000- 
...KANSAS...SOUTHEAST NEBRASKA AND IOWA...
  
CITY           SKY/WX    TMP DP  RH WIND       PRES   REMARKS
TOPEKA         CLOUDY    28  26  92 CALM      29.82F FOG              
MANHATTAN      LGT SNOW  28  26  92 CALM      29.82F FOG              
EMPORIA        LGT SNOW  27  27 100 S5        29.82F VSB 1   WCI  22  
CHANUTE        CLOUDY    32  30  92 SE5       29.83F FOG     WCI  27  
WICHITA        CLOUDY    28  28 100 CALM      29.81F FOG              
OMAHA          FRZ DRZL  25  22  88 CALM      29.85F                  
LINCOLN        LGT SNOW  22  20  92 NE5       29.84F FOG     WCI  16  
FALLS CITY     LGT SNOW  26  25  96 SE6       29.83F FOG     WCI  19  
LAMONI         LGT SNOW  27  25  92 SE8       29.85F VSB 1   WCI  19  
DES MOINES     LGT SNOW  26  23  88 E14G29    29.85F BLWGSNOWWCI  14  

$$